| time (UTC) | temp F | wind direction | speed MPH | gust MPH | rain 1hr in | rain 24hr in | rain mn in | humidity % | barometer mb |
| 20260901073009 | 62 | 100 | 4.0 | 8.0 | 0.00 | 0.00 | 0.00 | 28 | 879.7 |
| 20260901071508 | 62 | 107 | 3.0 | 7.0 | 0.00 | 0.00 | 0.00 | 35 | 879.7 |
| 20260901070007 | 60 | 102 | 2.0 | 6.0 | 0.00 | 0.00 | 0.00 | 42 | 879.7 |
| 20260901064504 | 58 | 104 | 2.0 | 5.0 | 0.00 | 0.00 | 0.00 | 49 | 879.8 |
| 20260901063003 | 58 | 329 | 0.0 | 0.0 | 0.00 | 0.00 | 0.00 | 61 | 879.9 |
| 20260901061503 | 58 | 329 | 0.0 | 0.0 | 0.00 | 0.00 | 0.00 | 55 | 880.0 |
| 20260901060001 | 58 | 329 | 0.0 | 0.0 | 0.00 | 0.00 | 0.00 | 53 | 879.9 |
| 20260901054601 | 58 | 329 | 0.0 | 0.0 | 0.00 | 0.00 | 0.00 | 50 | 879.9 |
| 20260901053101 | 58 | 329 | 0.0 | 0.0 | 0.00 | 0.00 | 0.00 | 52 | 879.9 |
| 20260901051616 | 58 | 329 | 0.0 | 0.0 | 0.00 | 0.00 | 0.00 | 45 | 879.9 |
| 20260901050059 | 59 | 329 | 0.0 | 1.0 | 0.00 | 0.00 | 0.00 | 43 | 879.9 |
| 20260901044555 | 59 | 329 | 0.0 | 3.0 | 0.00 | 0.00 | 0.00 | 48 | 879.9 |
| 20260901043056 | 59 | 322 | 1.0 | 3.0 | 0.00 | 0.00 | 0.00 | 43 | 880.0 |
| 20260901041552 | 60 | 322 | 0.0 | 0.0 | 0.00 | 0.00 | 0.00 | 44 | 879.8 |
| 20260901040051 | 60 | 322 | 0.0 | 1.0 | 0.00 | 0.00 | 0.00 | 50 | 879.8 |
| 20260901034602 | 61 | 319 | 0.0 | 2.0 | 0.00 | 0.00 | 0.00 | 53 | 879.5 |
| 20260901033106 | 61 | 300 | 0.0 | 3.0 | 0.00 | 0.00 | 0.00 | 54 | 879.4 |
| 20260901031545 | 62 | 106 | 0.0 | 3.0 | 0.00 | 0.00 | 0.00 | 54 | 879.2 |
| 20260901030043 | 63 | 106 | 0.0 | 4.0 | 0.00 | 0.00 | 0.00 | 58 | 879.0 |
| 20260901024543 | 64 | 111 | 2.0 | 8.0 | 0.00 | 0.00 | 0.00 | 60 | 878.9 |
| 20260901023048 | 64 | 112 | 4.0 | 8.0 | 0.00 | 0.00 | 0.00 | 60 | 878.7 |
| 20260901021547 | 66 | 130 | 4.0 | 10.0 | 0.00 | 0.00 | 0.00 | 58 | 878.6 |
| 20260901020040 | 67 | 118 | 7.0 | 13.0 | 0.00 | 0.00 | 0.00 | 55 | 878.4 |
| 20260901014537 | 68 | 148 | 7.0 | 15.0 | 0.00 | 0.00 | 0.00 | 53 | 878.4 |
| 20260901013039 | 70 | 100 | 8.0 | 17.0 | 0.00 | 0.00 | 0.00 | 51 | 878.4 |
| 20260901011535 | 71 | 125 | 9.0 | 16.0 | 0.00 | 0.00 | 0.00 | 50 | 878.4 |
| 20260901010035 | 72 | 96 | 8.0 | 14.0 | 0.00 | 0.00 | 0.00 | 49 | 878.5 |
| 20260901004530 | 73 | 126 | 9.0 | 19.0 | 0.00 | 0.00 | 0.00 | 47 | 878.5 |
| 20260901003033 | 74 | 85 | 9.0 | 21.0 | 0.00 | 0.00 | 0.00 | 46 | 878.5 |
| 20260901001538 | 74 | 135 | 8.0 | 16.0 | 0.00 | 0.00 | 0.00 | 45 | 878.7 |
| 20260901000028 | 75 | 112 | 12.0 | 18.0 | 0.00 | 0.00 | 0.00 | 45 | 878.8 |
| 20260831234528 | 76 | 129 | 10.0 | 18.0 | 0.00 | 0.00 | 0.00 | 43 | 878.8 |
| 20260831233027 | 76 | 114 | 6.0 | 18.0 | 0.00 | 0.00 | 0.00 | 43 | 878.9 |
| 20260831231525 | 76 | 116 | 10.0 | 16.0 | 0.00 | 0.00 | 0.00 | 42 | 878.8 |
| 20260831230025 | 76 | 90 | 13.0 | 20.0 | 0.00 | 0.00 | 0.00 | 42 | 878.9 |
| 20260831224523 | 77 | 121 | 12.0 | 18.0 | 0.00 | 0.00 | 0.00 | 40 | 879.0 |
| 20260831223023 | 78 | 126 | 11.0 | 18.0 | 0.00 | 0.00 | 0.00 | 40 | 879.0 |
| 20260831221529 | 78 | 163 | 12.0 | 22.0 | 0.00 | 0.00 | 0.00 | 40 | 879.1 |
| 20260831220021 | 78 | 80 | 11.0 | 19.0 | 0.00 | 0.00 | 0.00 | 40 | 879.2 |
| 20260831214521 | 79 | 138 | 10.0 | 20.0 | 0.00 | 0.00 | 0.00 | 39 | 879.2 |
| 20260831213020 | 78 | 125 | 11.0 | 17.0 | 0.00 | 0.00 | 0.00 | 38 | 879.4 |
| 20260831211518 | 79 | 150 | 9.0 | 24.0 | 0.00 | 0.00 | 0.00 | 36 | 879.5 |
| 20260831210017 | 79 | 124 | 10.0 | 21.0 | 0.00 | 0.00 | 0.00 | 35 | 879.6 |
| 20260831204517 | 79 | 158 | 8.0 | 21.0 | 0.00 | 0.00 | 0.00 | 35 | 879.8 |
| 20260831203016 | 78 | 61 | 9.0 | 16.0 | 0.00 | 0.00 | 0.00 | 35 | 879.9 |
| 20260831201515 | 79 | 126 | 7.0 | 17.0 | 0.00 | 0.00 | 0.00 | 35 | 879.9 |
| 20260831200014 | 78 | 115 | 6.0 | 20.0 | 0.00 | 0.00 | 0.00 | 34 | 879.9 |
| 20260831194514 | 79 | 95 | 9.0 | 18.0 | 0.00 | 0.00 | 0.00 | 32 | 879.9 |
| 20260831193022 | 79 | 123 | 6.0 | 20.0 | 0.00 | 0.00 | 0.00 | 32 | 880.0 |
| 20260831191511 | 79 | 128 | 11.0 | 17.0 | 0.00 | 0.00 | 0.00 | 31 | 880.1 |
| 20260831190022 | 78 | 113 | 9.0 | 15.0 | 0.00 | 0.00 | 0.00 | 33 | 880.1 |
| 20260831184507 | 77 | 49 | 8.0 | 21.0 | 0.00 | 0.00 | 0.00 | 35 | 880.2 |
| 20260831183008 | 77 | 123 | 9.0 | 16.0 | 0.00 | 0.00 | 0.00 | 34 | 880.1 |
| 20260831181504 | 77 | 90 | 10.0 | 15.0 | 0.00 | 0.00 | 0.00 | 32 | 880.0 |
| 20260831180001 | 76 | 153 | 8.0 | 14.0 | 0.00 | 0.00 | 0.00 | 32 | 880.0 |
| 20260831174633 | 76 | 91 | 7.0 | 15.0 | 0.00 | 0.00 | 0.00 | 32 | 880.0 |
| 20260831173058 | 76 | 131 | 6.0 | 16.0 | 0.00 | 0.00 | 0.00 | 29 | 879.8 |
| 20260831171555 | 75 | 160 | 8.0 | 17.0 | 0.00 | 0.00 | 0.00 | 31 | 879.8 |
| 20260831170056 | 74 | 161 | 10.0 | 16.0 | 0.00 | 0.00 | 0.00 | 29 | 879.5 |
| 20260831164555 | 74 | 133 | 7.0 | 16.0 | 0.00 | 0.00 | 0.00 | 32 | 879.5 |
| 20260831163048 | 73 | 136 | 10.0 | 17.0 | 0.00 | 0.00 | 0.00 | 25 | 879.4 |
| 20260831161546 | 73 | 156 | 6.0 | 15.0 | 0.00 | 0.00 | 0.00 | 23 | 879.3 |
| 20260831160043 | 73 | 111 | 8.0 | 16.0 | 0.00 | 0.00 | 0.00 | 22 | 879.4 |
| 20260831154546 | 72 | 129 | 9.0 | 16.0 | 0.00 | 0.00 | 0.00 | 19 | 879.2 |
| 20260831153051 | 71 | 124 | 8.0 | 13.0 | 0.00 | 0.00 | 0.00 | 19 | 879.2 |
| 20260831151544 | 71 | 107 | 7.0 | 14.0 | 0.00 | 0.00 | 0.00 | 19 | 879.1 |
| 20260831150033 | 69 | 109 | 8.0 | 15.0 | 0.00 | 0.00 | 0.00 | 20 | 879.0 |
| 20260831144530 | 68 | 98 | 8.0 | 12.0 | 0.00 | 0.00 | 0.00 | 20 | 878.8 |
| 20260831143035 | 67 | 141 | 7.0 | 11.0 | 0.00 | 0.00 | 0.00 | 21 | 878.8 |
| 20260831141528 | 66 | 107 | 6.0 | 13.0 | 0.00 | 0.00 | 0.00 | 22 | 878.6 |
| 20260831140034 | 66 | 116 | 6.0 | 10.0 | 0.00 | 0.00 | 0.00 | 22 | 878.5 |
| 20260831134527 | 65 | 125 | 7.0 | 10.0 | 0.00 | 0.00 | 0.00 | 22 | 878.3 |
| 20260831133025 | 65 | 111 | 4.0 | 9.0 | 0.00 | 0.00 | 0.00 | 22 | 878.1 |
| 20260831131522 | 65 | 102 | 6.0 | 11.0 | 0.00 | 0.00 | 0.00 | 21 | 878.0 |
| 20260831130020 | 65 | 87 | 5.0 | 10.0 | 0.00 | 0.00 | 0.00 | 21 | 877.9 |
| 20260831124518 | 66 | 99 | 8.0 | 14.0 | 0.00 | 0.00 | 0.00 | 20 | 877.7 |
| 20260831123019 | 66 | 115 | 7.0 | 11.0 | 0.00 | 0.00 | 0.00 | 20 | 877.7 |
| 20260831121522 | 66 | 105 | 8.0 | 15.0 | 0.00 | 0.00 | 0.00 | 19 | 877.6 |
| 20260831120032 | 66 | 96 | 7.0 | 13.0 | 0.00 | 0.00 | 0.00 | 19 | 877.5 |
| 20260831114512 | 66 | 76 | 7.0 | 12.0 | 0.00 | 0.00 | 0.00 | 19 | 877.6 |
| 20260831113010 | 66 | 116 | 7.0 | 15.0 | 0.00 | 0.00 | 0.00 | 18 | 877.6 |
| 20260831111510 | 66 | 115 | 8.0 | 16.0 | 0.00 | 0.00 | 0.00 | 18 | 877.8 |
| 20260831110005 | 66 | 114 | 5.0 | 14.0 | 0.00 | 0.00 | 0.00 | 19 | 877.8 |
| 20260831104504 | 67 | 101 | 7.0 | 14.0 | 0.00 | 0.00 | 0.00 | 18 | 877.9 |
| 20260831103002 | 67 | 98 | 5.0 | 12.0 | 0.00 | 0.00 | 0.00 | 18 | 877.9 |
| 20260831101501 | 67 | 109 | 6.0 | 12.0 | 0.00 | 0.00 | 0.00 | 19 | 877.9 |
| 20260831100059 | 67 | 77 | 7.0 | 11.0 | 0.00 | 0.00 | 0.00 | 19 | 877.9 |
| 20260831094606 | 67 | 87 | 6.0 | 11.0 | 0.00 | 0.00 | 0.00 | 18 | 878.0 |
| 20260831093141 | 67 | 105 | 6.0 | 13.0 | 0.00 | 0.00 | 0.00 | 18 | 878.0 |
| 20260831091552 | 67 | 129 | 7.0 | 13.0 | 0.00 | 0.00 | 0.00 | 18 | 878.1 |
| 20260831090050 | 67 | 140 | 6.0 | 12.0 | 0.00 | 0.00 | 0.00 | 17 | 878.1 |
| 20260831084630 | 68 | 81 | 6.0 | 16.0 | 0.00 | 0.00 | 0.00 | 16 | 878.3 |
| 20260831083050 | 68 | 88 | 6.0 | 13.0 | 0.00 | 0.00 | 0.00 | 16 | 878.3 |
| 20260831081544 | 68 | 73 | 6.0 | 11.0 | 0.00 | 0.00 | 0.00 | 15 | 878.5 |
| 20260831080100 | 68 | 113 | 6.0 | 13.0 | 0.00 | 0.00 | 0.00 | 16 | 878.5 |
| 20260831074548 | 68 | 67 | 6.0 | 11.0 | 0.00 | 0.00 | 0.00 | 16 | 878.6 |